TimeEST,TemperatureF,Dew PointF,Humidity,Sea Level PressureIn,VisibilityMPH,Wind Direction,Wind SpeedMPH,Gust SpeedMPH,PrecipitationIn,Events,Conditions,WindDirDegrees,DateUTC
12:53 AM,59.0,46.9,64,30.17,10.0,NW,15.0,21.9,N/A,,Overcast,320,2013-01-18 05:53:00
1:53 AM,57.9,46.0,65,30.17,10.0,NW,17.3,23.0,N/A,,Overcast,310,2013-01-18 06:53:00
2:08 AM,57.2,46.4,67,30.17,10.0,NNW,17.3,21.9,N/A,,Overcast,330,2013-01-18 07:08:00
2:53 AM,55.9,44.1,64,30.18,10.0,NNW,15.0,-,N/A,,Overcast,330,2013-01-18 07:53:00
3:53 AM,54.0,44.1,69,30.19,10.0,NNW,15.0,-,N/A,,Overcast,340,2013-01-18 08:53:00
4:53 AM,53.1,44.1,71,30.19,10.0,North,11.5,-,N/A,,Overcast,350,2013-01-18 09:53:00
5:53 AM,52.0,42.1,69,30.22,10.0,North,13.8,-,N/A,,Overcast,10,2013-01-18 10:53:00
6:53 AM,44.1,34.0,68,30.27,10.0,NNE,15.0,23.0,N/A,,Scattered Clouds,30,2013-01-18 11:53:00
7:53 AM,44.1,34.0,68,30.30,10.0,NNE,15.0,20.7,N/A,,Clear,20,2013-01-18 12:53:00
8:53 AM,46.0,34.0,63,30.32,10.0,NNE,17.3,-,N/A,,Clear,20,2013-01-18 13:53:00
9:53 AM,50.0,36.0,59,30.32,10.0,ENE,11.5,-,N/A,,Clear,60,2013-01-18 14:53:00
10:53 AM,55.0,39.0,55,30.31,10.0,NNE,10.4,-,N/A,,Clear,30,2013-01-18 15:53:00
11:53 AM,60.1,43.0,53,30.28,10.0,ENE,12.7,-,N/A,,Clear,70,2013-01-18 16:53:00
12:53 PM,64.0,45.0,50,30.25,10.0,ENE,11.5,-,N/A,,Clear,70,2013-01-18 17:53:00
1:53 PM,68.0,46.9,47,30.22,10.0,ENE,12.7,-,N/A,,Mostly Cloudy,60,2013-01-18 18:53:00
2:53 PM,69.1,48.9,49,30.21,10.0,ENE,10.4,-,N/A,,Mostly Cloudy,60,2013-01-18 19:53:00
3:53 PM,69.1,50.0,51,30.21,10.0,ENE,13.8,21.9,N/A,,Mostly Cloudy,60,2013-01-18 20:53:00
4:53 PM,68.0,50.0,52,30.22,10.0,ENE,11.5,-,N/A,,Clear,60,2013-01-18 21:53:00
5:53 PM,66.9,53.1,61,30.24,10.0,NE,10.4,-,N/A,,Overcast,50,2013-01-18 22:53:00
6:53 PM,64.9,52.0,63,30.25,10.0,NNE,8.1,-,N/A,,Overcast,30,2013-01-18 23:53:00
7:53 PM,62.1,55.0,78,30.26,10.0,NNE,6.9,-,N/A,,Scattered Clouds,30,2013-01-19 00:53:00
8:53 PM,60.1,55.9,86,30.26,10.0,NNE,10.4,-,N/A,,Clear,30,2013-01-19 01:53:00
9:53 PM,59.0,55.9,90,30.27,10.0,NNE,8.1,-,N/A,,Partly Cloudy,20,2013-01-19 02:53:00
10:53 PM,57.9,55.9,93,30.27,10.0,NNE,6.9,-,N/A,,Clear,30,2013-01-19 03:53:00
11:53 PM,59.0,57.0,93,30.25,10.0,NNE,9.2,-,N/A,,Clear,20,2013-01-19 04:53:00